Fremont, MI

1:39 AM EST on November 20, 2019 (GMT -0500)
Fremont

Weather History for KFFX - September, 2019

Change the Weather History Date:

Saturday, September 7, 2019

  Actual Average (WUND) Record (WUND)
Temperature  
Mean Temperature 58 °F -  
Max Temperature 70 °F - - (-1)
Min Temperature 47 °F - - (-1)
Degree Days  
Heating Degree Days 6    
Growing Degree Days 8 (Base 50)    
Moisture  
Dew Point 52 °F    
Average Humidity 76    
Maximum Humidity 95    
Minimum Humidity 47    
Precipitation  
Precipitation 0.00 in - - ()
Sea Level Pressure  
Sea Level Pressure 30.02 in    
Wind  
Wind Speed 4 mph ()    
Max Wind Speed 13 mph    
Max Gust Speed 17 mph    
Visibility 8.9 miles    
Events Fog    
Averages and records for this station are not official NWS values.
T = Trace of Precipitation, MM = Missing Value Source: Averaged Metar Reports

Daily Weather History Graph

Daily Weather History Graph

Search for Another Location

Airport or City:

Astronomy

Sep. 07, 2019 Rise Set
Actual Time 7:14 AM EDT 8:08 PM EDT
Civil Twilight 6:45 AM EDT 8:37 PM EDT
Nautical Twilight 6:10 AM EDT 9:12 PM EDT
Astronomical Twilight 5:34 AM EDT 9:48 PM EDT
Moon 4:32 PM EDT (9/7) 12:57 AM EDT (9/7)
Length of Visible Light 13h 52m
Length of Day
12h 54m
Waxing Gibbous, 65% of the Moon is Illuminated
Sep 7
Waxing Gibbous
Sep 14
Full
Sep 21
Last Quarter
Sep 28
New
Oct 5
First Quarter

Hourly Weather History & Observations

Time (EDT) Temp. Dew Point Humidity Pressure Visibility Wind Dir Wind Speed Gust Speed Precip Events Conditions
12:17 AM 60.8 °F 56.5 °F 86% 30.01 in 10.0 mi NNW 5.8 mph - N/A   Overcast
12:35 AM 60.4 °F 56.3 °F 86% 30.01 in 10.0 mi NNW 5.8 mph - N/A   Overcast
12:36 AM 60.4 °F 56.3 °F 86% 30.01 in 10.0 mi NNW 6.9 mph - N/A   Overcast
12:55 AM 59.4 °F 55.9 °F 88% 30.01 in 10.0 mi NW 6.9 mph - N/A   Overcast
12:56 AM 59.4 °F 55.9 °F 88% 30.01 in 10.0 mi NNW 6.9 mph - N/A   Overcast
1:15 AM 59.4 °F 56.1 °F 89% 30.01 in 10.0 mi NNW 6.9 mph - N/A   Overcast
1:20 AM 59.4 °F 55.9 °F 88% 30.01 in 10.0 mi NNW 6.9 mph - N/A   Overcast
1:38 AM 58.6 °F 55.4 °F 89% 30.01 in 10.0 mi NNW 6.9 mph - N/A   Overcast
1:56 AM 57.9 °F 54.7 °F 89% 30.00 in 10.0 mi North 5.8 mph - N/A   Scattered Clouds
2:15 AM 56.5 °F 53.8 °F 91% 30.00 in 10.0 mi NNW 4.6 mph - N/A   Clear
2:35 AM 55.8 °F 53.6 °F 92% 30.01 in 10.0 mi Calm Calm - N/A   Clear
2:59 AM 55.0 °F 53.2 °F 94% 30.00 in 10.0 mi Calm Calm - N/A   Clear
3:17 AM 54.7 °F 53.1 °F 94% 30.00 in 7.0 mi Calm Calm - N/A   Clear
3:35 AM 53.1 °F 51.3 °F 94% 30.00 in 10.0 mi Calm Calm - N/A   Clear
3:55 AM 52.9 °F 51.4 °F 95% 30.01 in 10.0 mi WNW 3.5 mph - N/A   Clear
3:56 AM 52.9 °F 51.3 °F 94% 30.01 in 10.0 mi WNW 3.5 mph - N/A   Clear
4:15 AM 52.9 °F 51.3 °F 94% 30.01 in 10.0 mi West 3.5 mph - N/A   Clear
4:20 AM 52.7 °F 50.9 °F 94% 30.01 in 10.0 mi Calm Calm - N/A   Clear
4:38 AM 51.1 °F 49.5 °F 94% 30.01 in 7.0 mi WNW 3.5 mph - N/A   Clear
4:56 AM 52.0 °F 50.2 °F 94% 30.01 in 7.0 mi WNW 3.5 mph - N/A   Clear
5:15 AM 52.2 °F 50.2 °F 93% 30.01 in 10.0 mi Calm Calm - N/A   Clear
5:16 AM 52.2 °F 50.2 °F 93% 30.01 in 10.0 mi Calm Calm - N/A   Clear
5:35 AM 52.2 °F 50.4 °F 94% 30.02 in 10.0 mi Calm Calm - N/A   Clear
5:59 AM 51.8 °F 50.0 °F 94% 30.01 in 1.8 mi Calm Calm - N/A   Mist
6:17 AM 50.4 °F 48.4 °F 93% 30.02 in 0.8 mi Calm Calm - N/A   Mist
6:35 AM 48.7 °F 46.9 °F 93% 30.02 in 0.8 mi Calm Calm - N/A   Mostly Cloudy
6:36 AM 48.7 °F 46.9 °F 93% 30.02 in 0.8 mi Calm Calm - N/A   Mostly Cloudy
6:55 AM 48.4 °F 46.4 °F 93% 30.02 in 0.5 mi Calm Calm - N/A Fog Fog
6:56 AM 48.4 °F 46.4 °F 93% 30.02 in 0.5 mi Calm Calm - N/A Fog Fog
7:15 AM 49.1 °F 46.9 °F 92% 30.02 in 0.2 mi Calm Calm - N/A Fog Fog
7:38 AM 47.7 °F 45.5 °F 92% 30.02 in 0.5 mi Calm Calm - N/A Fog Fog
7:56 AM 48.0 °F 45.9 °F 92% 30.03 in 0.2 mi Calm Calm - N/A Fog Fog
8:15 AM 50.2 °F 47.8 °F 92% 30.03 in 7.0 mi Calm Calm - N/A   Scattered Clouds
8:35 AM 53.2 °F 50.9 °F 92% 30.03 in 10.0 mi Calm Calm - N/A   Clear
8:59 AM 56.1 °F 54.5 °F 94% 30.03 in 10.0 mi Calm Calm - N/A   Scattered Clouds
9:17 AM 57.0 °F 55.4 °F 94% 30.03 in 10.0 mi Calm Calm - N/A   Overcast
9:35 AM 58.1 °F 55.9 °F 93% 30.03 in 10.0 mi Calm Calm - N/A   Overcast
9:55 AM 59.4 °F 56.7 °F 91% 30.03 in 10.0 mi SSW 3.5 mph - N/A   Overcast
10:15 AM 61.5 °F 57.2 °F 86% 30.03 in 10.0 mi South 3.5 mph - N/A   Mostly Cloudy
10:20 AM 61.7 °F 57.4 °F 86% 30.03 in 10.0 mi SSW 3.5 mph - N/A   Overcast
10:38 AM 63.5 °F 57.4 °F 80% 30.02 in 10.0 mi SW 4.6 mph - N/A   Mostly Cloudy
10:56 AM 66.2 °F 54.0 °F 65% 30.02 in 10.0 mi WSW 8.1 mph - N/A   Scattered Clouds
11:15 AM 66.6 °F 52.9 °F 61% 30.01 in 10.0 mi SW 10.4 mph - N/A   Scattered Clouds
11:16 AM 66.7 °F 52.9 °F 61% 30.01 in 10.0 mi SW 10.4 mph 16.1 mph N/A   Scattered Clouds
11:35 AM 68.2 °F 51.3 °F 55% 30.00 in 10.0 mi WSW 9.2 mph - N/A   Mostly Cloudy
11:36 AM 68.2 °F 51.3 °F 55% 30.00 in 10.0 mi West 8.1 mph - N/A   Mostly Cloudy
11:59 AM 68.7 °F 51.6 °F 54% 30.00 in 10.0 mi West 9.2 mph - N/A   Overcast
12:17 PM 68.2 °F 50.9 °F 54% 30.00 in 10.0 mi WSW 9.2 mph - N/A   Overcast
12:35 PM 69.1 °F 50.7 °F 52% 30.00 in 10.0 mi WSW 9.2 mph - N/A   Overcast
12:55 PM 69.6 °F 49.8 °F 49% 30.00 in 10.0 mi West 11.5 mph - N/A   Mostly Cloudy
12:56 PM 69.6 °F 49.8 °F 49% 30.00 in 10.0 mi West 10.4 mph - N/A   Mostly Cloudy
1:15 PM 70.7 °F 50.2 °F 48% 29.99 in 10.0 mi West 9.2 mph - N/A   Overcast
1:20 PM 70.9 °F 50.2 °F 48% 29.99 in 10.0 mi WSW 10.4 mph 17.3 mph N/A   Overcast
1:38 PM 70.0 °F 49.1 °F 47% 29.98 in 10.0 mi WSW 11.5 mph 17.3 mph N/A   Overcast
1:56 PM 68.9 °F 50.5 °F 52% 29.99 in 10.0 mi West 12.7 mph - N/A   Overcast
2:15 PM 68.0 °F 51.1 °F 55% 29.99 in 10.0 mi West 10.4 mph - N/A   Overcast
2:35 PM 66.7 °F 52.5 °F 60% 29.99 in 10.0 mi West 10.4 mph 16.1 mph N/A   Overcast
2:59 PM 65.7 °F 54.0 °F 66% 29.99 in 10.0 mi West 8.1 mph - N/A   Overcast
3:17 PM 66.2 °F 53.8 °F 64% 29.99 in 10.0 mi West 6.9 mph - N/A   Overcast
3:35 PM 67.1 °F 53.8 °F 62% 29.99 in 10.0 mi West 8.1 mph 16.1 mph N/A   Overcast
3:36 PM 67.1 °F 54.0 °F 63% 29.99 in 10.0 mi West 6.9 mph 16.1 mph N/A   Overcast
3:55 PM 67.3 °F 53.2 °F 61% 29.99 in 10.0 mi West 6.9 mph - N/A   Overcast
4:15 PM 67.3 °F 53.6 °F 61% 29.99 in 10.0 mi WNW 8.1 mph - N/A   Overcast
4:38 PM 66.7 °F 52.3 °F 60% 29.99 in 10.0 mi WNW 6.9 mph - N/A   Scattered Clouds
4:56 PM 67.6 °F 52.0 °F 57% 30.00 in 10.0 mi NW 8.1 mph - N/A   Scattered Clouds
5:15 PM 66.6 °F 51.1 °F 57% 30.01 in 10.0 mi NW 10.4 mph - N/A   Scattered Clouds
5:35 PM 66.6 °F 51.6 °F 59% 30.01 in 10.0 mi WNW 9.2 mph - N/A   Scattered Clouds
5:36 PM 66.6 °F 51.8 °F 59% 30.01 in 10.0 mi WNW 9.2 mph - N/A   Scattered Clouds
5:59 PM 66.6 °F 51.8 °F 59% 30.02 in 10.0 mi NW 9.2 mph - N/A   Scattered Clouds
6:17 PM 65.3 °F 52.0 °F 62% 30.02 in 10.0 mi NW 8.1 mph - N/A   Scattered Clouds
6:36 PM 66.0 °F 50.7 °F 58% 30.02 in 10.0 mi NNW 10.4 mph - N/A   Scattered Clouds
6:55 PM 64.2 °F 48.2 °F 56% 30.02 in 10.0 mi NNW 8.1 mph - N/A   Scattered Clouds
7:15 PM 63.7 °F 46.9 °F 54% 30.03 in 10.0 mi NW 6.9 mph - N/A   Clear
7:20 PM 63.3 °F 49.1 °F 60% 30.03 in 10.0 mi NNW 5.8 mph - N/A   Clear
7:38 PM 63.1 °F 47.3 °F 56% 30.03 in 10.0 mi NNW 5.8 mph - N/A   Clear
7:56 PM 62.1 °F 47.7 °F 59% 30.04 in 10.0 mi NW 4.6 mph - N/A   Clear
8:15 PM 61.0 °F 48.6 °F 64% 30.04 in 10.0 mi NNW 3.5 mph - N/A   Clear
8:35 PM 60.8 °F 49.3 °F 66% 30.04 in 10.0 mi Calm Calm - N/A   Clear
8:59 PM 60.4 °F 48.9 °F 66% 30.03 in 10.0 mi Calm Calm - N/A   Clear
9:17 PM 60.8 °F 49.8 °F 67% 30.04 in 10.0 mi Calm Calm - N/A   Clear
9:35 PM 59.9 °F 53.4 °F 79% 30.04 in 10.0 mi North 4.6 mph - N/A   Clear
9:36 PM 59.9 °F 53.4 °F 79% 30.04 in 10.0 mi NNW 3.5 mph - N/A   Clear
9:55 PM 59.5 °F 54.0 °F 82% 30.04 in 10.0 mi Calm Calm - N/A   Clear
10:15 PM 59.7 °F 53.8 °F 81% 30.03 in 10.0 mi NNE 3.5 mph - N/A   Clear
10:38 PM 59.9 °F 51.8 °F 75% 30.04 in 10.0 mi North 3.5 mph - N/A   Clear
10:56 PM 58.5 °F 53.2 °F 83% 30.05 in 10.0 mi North 3.5 mph - N/A   Clear
11:15 PM 58.5 °F 52.3 °F 80% 30.05 in 10.0 mi North 3.5 mph - N/A   Clear
11:35 PM 57.7 °F 52.2 °F 82% 30.06 in 10.0 mi North 3.5 mph - N/A   Clear
11:59 PM 57.7 °F 51.6 °F 80% 30.07 in 10.0 mi North 4.6 mph - N/A   Clear